Location: ?????????
(41.1143°N, 22.7905°E)
Time: 08:06:13
(UTC+00:00)

COSMO-SKYMED 1 - Pass Details

Date: 18 March 2026
Orbit: 576 x 578 km, 97.9° (Epoch: 18 April)

Event Time Altitude Azimuth Distance (km) Brightness Sun altitude
Rises 17:06:31 0° 11° (N) 2,800 5.9 -6.1°
Reaches altitude 10° 17:08:41 10° 9° (N) 1,896 5.0 -6.5°
Maximum altitude 17:12:47 77° 285° (WNW) 597 2.7 -7.2°
Drops below altitude 10° 17:16:51 10° 199° (SSW) 1,880 5.2 -8.0°
Sets 17:18:59 0° 198° (SSW) 2,773 6.1 -8.4°
